Time,TemperatureF,DewpointF,PressureIn,WindDirection,WindDirectionDegrees,WindSpeedMPH,WindSpeedGustMPH,Humidity,HourlyPrecipIn,Conditions,Clouds,dailyrainin,SolarRadiationWatts/m^2,SoftwareType,DateUTC
2013-04-03 00:00:00,59.0,56.7,29.85,North,360,1.0,1.0,92,0.62,,,0.61,0,Wunderground v.1.15,2013-04-03 05:00:00,
2013-04-03 00:10:00,58.9,56.9,29.85,North,360,1.0,1.0,93,0.28,,,0.05,0,Wunderground v.1.15,2013-04-03 05:10:00,
2013-04-03 00:15:00,58.8,56.8,29.85,NNE,15,1.0,1.0,93,0.17,,,0.06,0,Wunderground v.1.15,2013-04-03 05:15:00,
2013-04-03 00:20:00,58.7,56.7,29.85,NNE,13,1.0,1.0,93,0.13,,,0.07,0,Wunderground v.1.15,2013-04-03 05:20:00,
2013-04-03 00:30:00,58.7,57.0,29.83,NNE,13,4.0,11.0,94,0.11,,,0.09,0,Wunderground v.1.15,2013-04-03 05:30:00,
2013-04-03 00:35:00,58.7,57.0,29.83,NNE,29,6.0,11.0,94,0.19,,,0.11,0,Wunderground v.1.15,2013-04-03 05:35:00,
2013-04-03 00:40:00,58.7,57.0,29.83,NE,45,8.0,13.0,94,0.10,,,0.11,0,Wunderground v.1.15,2013-04-03 05:40:00,
2013-04-03 00:45:00,58.6,56.9,29.85,NW,311,8.0,13.0,94,0.13,,,0.13,0,Wunderground v.1.15,2013-04-03 05:45:00,
2013-04-03 00:51:00,58.6,57.2,29.85,NE,44,6.0,6.0,95,0.13,,,0.14,0,Wunderground v.1.15,2013-04-03 05:51:00,
2013-04-03 00:55:00,58.6,57.2,29.85,NE,36,5.0,6.0,95,0.17,,,0.15,0,Wunderground v.1.15,2013-04-03 05:55:00,
2013-04-03 01:10:00,58.6,57.2,29.83,NE,54,6.0,13.0,95,0.13,,,0.19,0,Wunderground v.1.15,2013-04-03 06:10:00,
2013-04-03 01:15:00,58.6,57.2,29.80,NE,40,7.0,13.0,95,0.09,,,0.19,0,Wunderground v.1.15,2013-04-03 06:15:00,
2013-04-03 01:20:00,58.5,57.1,29.80,North,360,9.0,12.0,95,0.07,,,0.20,0,Wunderground v.1.15,2013-04-03 06:20:00,
2013-04-03 01:25:00,58.4,57.0,29.80,NE,41,11.0,15.0,95,0.07,,,0.20,0,Wunderground v.1.15,2013-04-03 06:25:00,
2013-04-03 01:30:00,58.3,56.9,29.76,NE,53,12.0,15.0,95,0.07,,,0.21,0,Wunderground v.1.15,2013-04-03 06:30:00,
2013-04-03 01:35:00,58.2,56.8,29.76,NNE,32,13.0,15.0,95,0.06,,,0.21,0,Wunderground v.1.15,2013-04-03 06:35:00,
2013-04-03 01:45:00,58.0,56.6,29.69,NE,37,14.0,21.0,95,0.00,,,0.21,0,Wunderground v.1.15,2013-04-03 06:45:00,
2013-04-03 01:51:00,57.9,56.5,29.69,NNE,32,14.0,16.0,95,0.00,,,0.21,0,Wunderground v.1.15,2013-04-03 06:51:00,
2013-04-03 01:55:00,58.0,56.6,29.69,NE,42,13.0,16.0,95,0.00,,,0.21,0,Wunderground v.1.15,2013-04-03 06:55:00,
2013-04-03 02:00:00,58.0,56.6,29.66,NE,54,12.0,12.0,95,0.00,,,0.21,0,Wunderground v.1.15,2013-04-03 07:00:00,
2013-04-03 02:10:00,58.4,57.0,29.66,NE,55,8.0,8.0,95,0.00,,,0.21,0,Wunderground v.1.15,2013-04-03 07:10:00,
2013-04-03 02:15:00,58.5,57.1,29.67,ENE,71,8.0,8.0,95,0.00,,,0.21,0,Wunderground v.1.15,2013-04-03 07:15:00,
2013-04-03 02:20:00,58.6,57.2,29.67,West,265,9.0,9.0,95,0.00,,,0.21,0,Wunderground v.1.15,2013-04-03 07:20:00,
2013-04-03 02:25:00,58.8,57.4,29.67,West,272,9.0,11.0,95,0.00,,,0.21,0,Wunderground v.1.15,2013-04-03 07:25:00,
2013-04-03 02:35:00,58.9,57.5,29.77,NW,321,9.0,12.0,95,0.00,,,0.21,0,Wunderground v.1.15,2013-04-03 07:35:00,
2013-04-03 02:40:00,58.6,57.2,29.77,NW,312,10.0,10.0,95,0.00,,,0.21,0,Wunderground v.1.15,2013-04-03 07:40:00,
2013-04-03 02:45:00,58.6,57.2,29.78,WNW,303,9.0,10.0,95,0.00,,,0.21,0,Wunderground v.1.15,2013-04-03 07:45:00,
2013-04-03 02:51:00,58.6,57.2,29.78,NW,313,7.0,7.0,95,0.00,,,0.21,0,Wunderground v.1.15,2013-04-03 07:51:00,
2013-04-03 02:55:00,58.6,57.2,29.78,WNW,297,5.0,7.0,95,0.00,,,0.21,0,Wunderground v.1.15,2013-04-03 07:55:00,
2013-04-03 03:00:00,58.6,57.2,29.79,NNW,331,5.0,5.0,95,0.00,,,0.21,0,Wunderground v.1.15,2013-04-03 08:00:00,
2013-04-03 03:10:00,58.4,57.0,29.79,NNW,338,3.0,3.0,95,0.00,,,0.21,0,Wunderground v.1.15,2013-04-03 08:10:00,
2013-04-03 03:15:00,58.3,56.9,29.78,NE,38,3.0,3.0,95,0.00,,,0.21,0,Wunderground v.1.15,2013-04-03 08:15:00,
2013-04-03 03:20:00,58.2,56.5,29.78,NE,41,3.0,3.0,94,0.00,,,0.21,0,Wunderground v.1.15,2013-04-03 08:20:00,
2013-04-03 03:25:00,58.2,56.5,29.78,NE,36,3.0,3.0,94,0.00,,,0.21,0,Wunderground v.1.15,2013-04-03 08:25:00,
2013-04-03 03:30:00,58.2,56.5,29.78,NNE,33,2.0,2.0,94,0.00,,,0.21,0,Wunderground v.1.15,2013-04-03 08:30:00,
2013-04-03 03:35:00,58.1,56.4,29.78,NNE,32,2.0,2.0,94,0.00,,,0.21,0,Wunderground v.1.15,2013-04-03 08:35:00,
2013-04-03 03:40:00,58.0,56.3,29.78,NNE,32,2.0,2.0,94,0.00,,,0.21,0,Wunderground v.1.15,2013-04-03 08:40:00,
2013-04-03 03:45:00,58.0,56.3,29.78,NNE,32,1.0,2.0,94,0.00,,,0.21,0,Wunderground v.1.15,2013-04-03 08:45:00,
2013-04-03 03:50:00,57.9,56.2,29.78,NE,34,1.0,1.0,94,0.00,,,0.21,0,Wunderground v.1.15,2013-04-03 08:50:00,
2013-04-03 04:00:00,57.8,56.1,29.77,NNE,32,1.0,2.0,94,0.00,,,0.21,0,Wunderground v.1.15,2013-04-03 09:00:00,
2013-04-03 04:06:00,57.7,56.0,29.77,NNE,29,2.0,2.0,94,0.00,,,0.21,0,Wunderground v.1.15,2013-04-03 09:06:00,
2013-04-03 04:15:00,57.6,55.6,29.77,NNE,30,0.0,2.0,93,0.00,,,0.21,0,Wunderground v.1.15,2013-04-03 09:15:00,
2013-04-03 04:20:00,57.5,55.8,29.77,NNE,29,0.0,0.0,94,0.00,,,0.21,0,Wunderground v.1.15,2013-04-03 09:20:00,
2013-04-03 04:25:00,57.5,55.5,29.77,NNE,30,0.0,0.0,93,0.00,,,0.21,0,Wunderground v.1.15,2013-04-03 09:25:00,
2013-04-03 04:30:00,57.4,55.4,29.77,NNE,25,1.0,4.0,93,0.00,,,0.21,0,Wunderground v.1.15,2013-04-03 09:30:00,
2013-04-03 04:35:00,57.3,55.3,29.77,NNE,21,2.0,4.0,93,0.00,,,0.21,0,Wunderground v.1.15,2013-04-03 09:35:00,
2013-04-03 04:40:00,57.2,55.2,29.77,NNE,15,3.0,5.0,93,0.00,,,0.21,0,Wunderground v.1.15,2013-04-03 09:40:00,
2013-04-03 04:45:00,57.2,55.2,29.78,NNW,329,3.0,5.0,93,0.00,,,0.21,0,Wunderground v.1.15,2013-04-03 09:45:00,
2013-04-03 04:50:00,57.2,55.2,29.78,NNW,336,3.0,4.0,93,0.00,,,0.21,0,Wunderground v.1.15,2013-04-03 09:50:00,
2013-04-03 04:55:00,57.2,55.2,29.78,NNW,332,2.0,4.0,93,0.00,,,0.21,0,Wunderground v.1.15,2013-04-03 09:55:00,
2013-04-03 05:10:00,57.1,55.1,29.79,NNW,329,4.0,4.0,93,0.00,,,0.21,0,Wunderground v.1.15,2013-04-03 10:10:00,
2013-04-03 05:15:00,57.1,55.1,29.79,NNW,333,4.0,4.0,93,0.00,,,0.21,0,Wunderground v.1.15,2013-04-03 10:15:00,
2013-04-03 05:20:00,57.0,55.0,29.79,North,9,4.0,9.0,93,0.00,,,0.21,0,Wunderground v.1.15,2013-04-03 10:20:00,
2013-04-03 05:25:00,57.0,55.0,29.79,NNW,331,5.0,9.0,93,0.00,,,0.21,0,Wunderground v.1.15,2013-04-03 10:25:00,
2013-04-03 05:30:00,57.0,55.0,29.80,NNE,31,4.0,4.0,93,0.00,,,0.21,0,Wunderground v.1.15,2013-04-03 10:30:00,
2013-04-03 05:35:00,57.0,55.0,29.80,NNW,338,4.0,4.0,93,0.00,,,0.21,0,Wunderground v.1.15,2013-04-03 10:35:00,
2013-04-03 05:40:00,56.9,54.9,29.80,NNW,336,5.0,5.0,93,0.00,,,0.21,0,Wunderground v.1.15,2013-04-03 10:40:00,
2013-04-03 05:45:00,56.9,54.9,29.80,NNW,338,5.0,5.0,93,0.00,,,0.21,0,Wunderground v.1.15,2013-04-03 10:45:00,
2013-04-03 05:55:00,56.8,54.8,29.80,NNW,338,5.0,5.0,93,0.00,,,0.21,0,Wunderground v.1.15,2013-04-03 10:55:00,
2013-04-03 06:00:00,56.8,54.8,29.82,NNW,330,5.0,7.0,93,0.00,,,0.21,0,Wunderground v.1.15,2013-04-03 11:00:00,
2013-04-03 06:05:00,56.8,54.8,29.82,North,360,5.0,7.0,93,0.00,,,0.21,0,Wunderground v.1.15,2013-04-03 11:05:00,
2013-04-03 06:10:00,56.8,54.8,29.82,NNW,338,5.0,5.0,93,0.00,,,0.21,0,Wunderground v.1.15,2013-04-03 11:10:00,
2013-04-03 06:20:00,56.8,54.5,29.83,North,9,5.0,5.0,92,0.00,,,0.21,0,Wunderground v.1.15,2013-04-03 11:20:00,
2013-04-03 06:30:00,56.7,54.4,29.83,North,360,4.0,9.0,92,0.00,,,0.21,0,Wunderground v.1.15,2013-04-03 11:30:00,
2013-04-03 06:35:00,56.7,54.4,29.83,NNW,338,4.0,9.0,92,0.00,,,0.21,0,Wunderground v.1.15,2013-04-03 11:35:00,
2013-04-03 06:45:00,56.7,54.4,29.83,NNW,338,4.0,5.0,92,0.00,,,0.21,0,Wunderground v.1.15,2013-04-03 11:45:00,
2013-04-03 06:50:00,56.7,54.4,29.83,NNE,15,5.0,5.0,92,0.00,,,0.21,0,Wunderground v.1.15,2013-04-03 11:50:00,
2013-04-03 06:55:00,56.7,54.4,29.83,North,9,5.0,5.0,92,0.00,,,0.21,0,Wunderground v.1.15,2013-04-03 11:55:00,
2013-04-03 07:00:00,56.7,54.4,29.83,NNE,21,4.0,4.0,92,0.00,,,0.21,0,Wunderground v.1.15,2013-04-03 12:00:00,
2013-04-03 07:10:00,56.7,54.4,29.83,North,360,4.0,4.0,92,0.00,,,0.21,0,Wunderground v.1.15,2013-04-03 12:10:00,
2013-04-03 07:20:00,56.9,54.6,29.86,NNE,15,5.0,5.0,92,0.00,,,0.21,0,Wunderground v.1.15,2013-04-03 12:20:00,
2013-04-03 07:25:00,57.0,54.7,29.86,NE,43,4.0,7.0,92,0.00,,,0.21,5,Wunderground v.1.15,2013-04-03 12:25:00,
2013-04-03 07:30:00,57.1,54.8,29.85,NNE,21,4.0,11.0,92,0.00,,,0.21,7,Wunderground v.1.15,2013-04-03 12:30:00,
2013-04-03 07:35:00,57.2,54.9,29.85,ENE,58,6.0,11.0,92,0.00,,,0.21,12,Wunderground v.1.15,2013-04-03 12:35:00,
2013-04-03 07:40:00,57.3,55.0,29.85,ENE,59,6.0,6.0,92,0.00,,,0.21,18,Wunderground v.1.15,2013-04-03 12:40:00,
2013-04-03 07:45:00,57.5,55.2,29.86,NNE,28,6.0,6.0,92,0.00,,,0.21,23,Wunderground v.1.15,2013-04-03 12:45:00,
2013-04-03 07:50:00,57.7,55.4,29.86,NNE,33,6.0,6.0,92,0.00,,,0.21,42,Wunderground v.1.15,2013-04-03 12:50:00,
2013-04-03 07:55:00,57.8,55.2,29.86,NNE,21,6.0,7.0,91,0.00,,,0.21,44,Wunderground v.1.15,2013-04-03 12:55:00,
2013-04-03 08:00:00,57.9,55.3,29.88,NNE,16,6.0,6.0,91,0.00,,,0.21,39,Wunderground v.1.15,2013-04-03 13:00:00,
2013-04-03 08:06:00,58.0,55.4,29.88,NE,51,5.0,6.0,91,0.00,,,0.21,40,Wunderground v.1.15,2013-04-03 13:06:00,
2013-04-03 08:10:00,58.1,55.5,29.88,NNE,30,4.0,5.0,91,0.00,,,0.21,69,Wunderground v.1.15,2013-04-03 13:10:00,
2013-04-03 08:15:00,58.2,55.3,29.89,NE,34,5.0,9.0,90,0.00,,,0.21,98,Wunderground v.1.15,2013-04-03 13:15:00,
2013-04-03 08:20:00,58.3,55.4,29.89,NE,40,7.0,11.0,90,0.00,,,0.21,76,Wunderground v.1.15,2013-04-03 13:20:00,
2013-04-03 08:25:00,58.4,55.5,29.89,NE,40,7.0,11.0,90,0.00,,,0.21,77,Wunderground v.1.15,2013-04-03 13:25:00,
2013-04-03 08:30:00,58.4,55.5,29.90,NNE,32,5.0,5.0,90,0.00,,,0.21,65,Wunderground v.1.15,2013-04-03 13:30:00,
2013-04-03 08:35:00,58.5,55.6,29.90,NW,322,6.0,6.0,90,0.00,,,0.21,51,Wunderground v.1.15,2013-04-03 13:35:00,
2013-04-03 08:40:00,58.2,55.0,29.90,North,9,8.0,8.0,89,0.00,,,0.21,49,Wunderground v.1.15,2013-04-03 13:40:00,
2013-04-03 08:50:00,57.6,54.4,29.89,NNE,30,8.0,13.0,89,0.00,,,0.21,69,Wunderground v.1.15,2013-04-03 13:50:00,
2013-04-03 08:55:00,57.5,54.3,29.89,NNE,13,7.0,13.0,89,0.00,,,0.21,74,Wunderground v.1.15,2013-04-03 13:55:00,
2013-04-03 09:00:00,57.4,54.2,29.90,NNE,15,6.0,6.0,89,0.00,,,0.21,72,Wunderground v.1.15,2013-04-03 14:00:00,
2013-04-03 09:06:00,57.3,54.1,29.90,NNW,338,4.0,6.0,89,0.00,,,0.21,113,Wunderground v.1.15,2013-04-03 14:06:00,
2013-04-03 09:15:00,57.0,53.5,29.91,North,11,6.0,6.0,88,0.00,,,0.21,156,Wunderground v.1.15,2013-04-03 14:15:00,
2013-04-03 09:20:00,56.9,53.4,29.91,NNE,26,7.0,7.0,88,0.00,,,0.21,171,Wunderground v.1.15,2013-04-03 14:20:00,
2013-04-03 09:30:00,56.8,53.0,29.93,NNE,19,7.0,7.0,87,0.00,,,0.21,148,Wunderground v.1.15,2013-04-03 14:30:00,
2013-04-03 09:35:00,57.0,53.5,29.93,NW,319,6.0,15.0,88,0.00,,,0.21,77,Wunderground v.1.15,2013-04-03 14:35:00,
2013-04-03 09:45:00,56.8,53.0,29.93,NNW,331,8.0,8.0,87,0.00,,,0.21,72,Wunderground v.1.15,2013-04-03 14:45:00,
2013-04-03 09:50:00,56.6,52.8,29.93,NNW,336,9.0,15.0,87,0.00,,,0.21,90,Wunderground v.1.15,2013-04-03 14:50:00,
2013-04-03 09:55:00,56.4,52.6,29.93,NNE,28,9.0,15.0,87,0.00,,,0.21,141,Wunderground v.1.15,2013-04-03 14:55:00,
2013-04-03 10:00:00,56.4,52.6,29.93,NNE,21,8.0,8.0,87,0.00,,,0.21,207,Wunderground v.1.15,2013-04-03 15:00:00,
2013-04-03 10:06:00,56.4,52.6,29.93,NNW,333,7.0,8.0,87,0.00,,,0.21,225,Wunderground v.1.15,2013-04-03 15:06:00,
2013-04-03 10:10:00,56.3,52.5,29.93,NNE,26,8.0,9.0,87,0.00,,,0.21,135,Wunderground v.1.15,2013-04-03 15:10:00,
2013-04-03 10:15:00,56.3,52.5,29.93,North,360,9.0,11.0,87,0.00,,,0.21,186,Wunderground v.1.15,2013-04-03 15:15:00,
2013-04-03 10:20:00,56.2,52.4,29.93,NNW,338,9.0,9.0,87,0.00,,,0.21,156,Wunderground v.1.15,2013-04-03 15:20:00,
2013-04-03 10:25:00,56.1,52.3,29.93,NNE,25,10.0,10.0,87,0.00,,,0.21,107,Wunderground v.1.15,2013-04-03 15:25:00,
2013-04-03 10:30:00,56.2,52.4,29.93,NNW,338,8.0,8.0,87,0.00,,,0.21,146,Wunderground v.1.15,2013-04-03 15:30:00,
2013-04-03 10:35:00,56.2,52.4,29.93,NNE,13,7.0,10.0,87,0.00,,,0.21,118,Wunderground v.1.15,2013-04-03 15:35:00,
2013-04-03 10:40:00,56.2,52.4,29.93,NNE,27,7.0,11.0,87,0.00,,,0.21,95,Wunderground v.1.15,2013-04-03 15:40:00,
2013-04-03 10:45:00,56.0,52.2,29.93,NNW,338,7.0,11.0,87,0.00,,,0.21,74,Wunderground v.1.15,2013-04-03 15:45:00,
2013-04-03 10:50:00,55.9,51.8,29.93,NNE,29,8.0,8.0,86,0.00,,,0.21,90,Wunderground v.1.15,2013-04-03 15:50:00,
2013-04-03 10:55:00,55.9,51.8,29.93,NNE,16,7.0,8.0,86,0.00,,,0.21,65,Wunderground v.1.15,2013-04-03 15:55:00,
2013-04-03 11:00:00,55.8,52.0,29.92,NE,36,6.0,6.0,87,0.00,,,0.21,60,Wunderground v.1.15,2013-04-03 16:00:00,
2013-04-03 11:10:00,55.5,51.7,29.92,NE,46,9.0,12.0,87,0.00,,,0.21,46,Wunderground v.1.15,2013-04-03 16:10:00,
2013-04-03 11:15:00,55.3,51.2,29.90,NNE,19,10.0,12.0,86,0.00,,,0.21,16,Wunderground v.1.15,2013-04-03 16:15:00,
2013-04-03 11:20:00,55.2,51.4,29.90,NE,44,9.0,9.0,87,0.00,,,0.21,16,Wunderground v.1.15,2013-04-03 16:20:00,
2013-04-03 11:30:00,55.0,51.2,29.91,ENE,59,6.0,11.0,87,0.00,,,0.21,5,Wunderground v.1.15,2013-04-03 16:30:00,
2013-04-03 11:35:00,55.0,51.2,29.91,NE,52,4.0,11.0,87,0.00,,,0.21,7,Wunderground v.1.15,2013-04-03 16:35:00,
2013-04-03 11:40:00,55.0,51.5,29.91,NE,50,5.0,9.0,88,0.00,,,0.21,7,Wunderground v.1.15,2013-04-03 16:40:00,
2013-04-03 11:45:00,55.0,51.5,29.93,NNE,21,6.0,9.0,88,0.00,,,0.21,5,Wunderground v.1.15,2013-04-03 16:45:00,
2013-04-03 11:50:00,55.0,51.8,29.93,WNW,296,5.0,5.0,89,0.00,,,0.21,0,Wunderground v.1.15,2013-04-03 16:50:00,
2013-04-03 11:55:00,55.0,52.1,29.93,NNW,338,6.0,15.0,90,0.81,,,0.25,0,Wunderground v.1.15,2013-04-03 16:55:00,
2013-04-03 12:00:00,54.8,51.9,29.99,West,279,6.0,6.0,90,1.41,,,0.34,0,Wunderground v.1.15,2013-04-03 17:00:00,
2013-04-03 12:10:00,54.5,51.9,29.99,East,83,1.0,4.0,91,0.87,,,0.49,5,Wunderground v.1.15,2013-04-03 17:10:00,
2013-04-03 12:15:00,54.4,52.1,29.89,East,79,3.0,6.0,92,0.58,,,0.55,7,Wunderground v.1.15,2013-04-03 17:15:00,
2013-04-03 12:20:00,54.5,52.2,29.89,ESE,114,5.0,5.0,92,0.62,,,0.61,7,Wunderground v.1.15,2013-04-03 17:20:00,
2013-04-03 12:25:00,54.4,52.4,29.89,NNW,337,3.0,5.0,93,0.27,,,0.64,11,Wunderground v.1.15,2013-04-03 17:25:00,
2013-04-03 12:35:00,54.5,52.5,29.94,WNW,299,6.0,9.0,93,0.08,,,0.65,14,Wunderground v.1.15,2013-04-03 17:35:00,
2013-04-03 12:40:00,54.6,52.9,29.94,NW,319,6.0,7.0,94,0.07,,,0.65,19,Wunderground v.1.15,2013-04-03 17:40:00,
2013-04-03 12:45:00,54.6,52.9,29.92,NW,310,4.0,7.0,94,0.05,,,0.65,42,Wunderground v.1.15,2013-04-03 17:45:00,
2013-04-03 12:50:00,54.4,52.7,29.92,NW,307,3.0,3.0,94,0.13,,,0.66,18,Wunderground v.1.15,2013-04-03 17:50:00,
2013-04-03 13:00:00,54.0,52.3,29.96,WNW,302,6.0,6.0,94,0.06,,,0.67,19,Wunderground v.1.15,2013-04-03 18:00:00,
2013-04-03 13:06:00,53.9,52.2,29.96,West,275,5.0,6.0,94,0.04,,,0.67,18,Wunderground v.1.15,2013-04-03 18:06:00,
2013-04-03 13:10:00,53.8,52.1,29.96,NW,311,4.0,9.0,94,0.00,,,0.67,33,Wunderground v.1.15,2013-04-03 18:10:00,
2013-04-03 13:15:00,53.7,52.0,29.97,WNW,298,5.0,9.0,94,0.00,,,0.68,26,Wunderground v.1.15,2013-04-03 18:15:00,
2013-04-03 13:20:00,53.6,51.9,29.97,NW,319,4.0,4.0,94,0.00,,,0.68,28,Wunderground v.1.15,2013-04-03 18:20:00,
2013-04-03 13:30:00,53.5,52.1,29.96,NW,321,4.0,4.0,95,0.00,,,0.68,51,Wunderground v.1.15,2013-04-03 18:30:00,
2013-04-03 13:35:00,53.5,52.1,29.96,NNW,336,4.0,10.0,95,0.00,,,0.68,76,Wunderground v.1.15,2013-04-03 18:35:00,
2013-04-03 13:40:00,53.5,52.1,29.96,NW,319,6.0,7.0,95,0.00,,,0.68,83,Wunderground v.1.15,2013-04-03 18:40:00,
2013-04-03 13:45:00,53.5,52.1,29.94,NW,323,6.0,7.0,95,0.00,,,0.68,97,Wunderground v.1.15,2013-04-03 18:45:00,
2013-04-03 13:50:00,53.7,52.3,29.94,NNW,329,3.0,3.0,95,0.00,,,0.68,91,Wunderground v.1.15,2013-04-03 18:50:00,
2013-04-03 13:55:00,53.5,52.1,29.94,NW,317,5.0,10.0,95,0.00,,,0.68,98,Wunderground v.1.15,2013-04-03 18:55:00,
2013-04-03 14:00:00,53.2,51.8,29.93,NW,318,8.0,8.0,95,0.00,,,0.68,107,Wunderground v.1.15,2013-04-03 19:00:00,
2013-04-03 14:10:00,53.2,51.8,29.93,NNW,330,4.0,4.0,95,0.00,,,0.68,63,Wunderground v.1.15,2013-04-03 19:10:00,
2013-04-03 14:20:00,53.3,51.9,29.94,NNW,333,2.0,2.0,95,0.00,,,0.68,91,Wunderground v.1.15,2013-04-03 19:20:00,
2013-04-03 14:25:00,53.2,51.8,29.94,NNW,329,5.0,9.0,95,0.00,,,0.69,264,Wunderground v.1.15,2013-04-03 19:25:00,
2013-04-03 14:30:00,53.1,51.7,29.93,NNW,331,8.0,8.0,95,0.15,,,0.70,183,Wunderground v.1.15,2013-04-03 19:30:00,
2013-04-03 14:35:00,53.5,52.1,29.93,NNW,330,6.0,8.0,95,0.09,,,0.70,193,Wunderground v.1.15,2013-04-03 19:35:00,
2013-04-03 14:45:00,53.9,52.2,29.93,NW,318,3.0,7.0,94,0.04,,,0.70,98,Wunderground v.1.15,2013-04-03 19:45:00,
2013-04-03 14:50:00,54.2,52.5,29.93,NNW,337,3.0,3.0,94,0.00,,,0.70,84,Wunderground v.1.15,2013-04-03 19:50:00,
2013-04-03 14:55:00,54.2,52.5,29.93,North,360,3.0,3.0,94,0.00,,,0.70,135,Wunderground v.1.15,2013-04-03 19:55:00,
2013-04-03 15:00:00,54.1,52.4,29.93,NNE,13,4.0,6.0,94,0.00,,,0.70,142,Wunderground v.1.15,2013-04-03 20:00:00,
2013-04-03 15:15:00,53.7,51.7,29.94,NNW,333,5.0,10.0,93,0.00,,,0.71,28,Wunderground v.1.15,2013-04-03 20:15:00,
2013-04-03 15:25:00,53.4,51.4,29.94,North,360,4.0,4.0,93,0.09,,,0.72,33,Wunderground v.1.15,2013-04-03 20:25:00,
2013-04-03 15:30:00,53.3,51.3,29.94,North,360,4.0,4.0,93,0.40,,,0.74,21,Wunderground v.1.15,2013-04-03 20:30:00,
2013-04-03 15:35:00,53.1,51.1,29.94,NNE,15,5.0,5.0,93,0.59,,,0.79,25,Wunderground v.1.15,2013-04-03 20:35:00,
2013-04-03 15:40:00,53.0,51.0,29.94,NNW,328,4.0,5.0,93,0.59,,,0.84,18,Wunderground v.1.15,2013-04-03 20:40:00,
2013-04-03 15:45:00,52.9,51.2,29.94,NW,325,3.0,6.0,94,0.75,,,0.90,26,Wunderground v.1.15,2013-04-03 20:45:00,
2013-04-03 15:50:00,52.8,51.1,29.94,NNW,339,5.0,6.0,94,0.40,,,0.94,37,Wunderground v.1.15,2013-04-03 20:50:00,
2013-04-03 16:00:00,52.7,51.0,29.94,NW,326,2.0,2.0,94,0.38,,,1.02,39,Wunderground v.1.15,2013-04-03 21:00:00,
2013-04-03 16:06:00,52.7,51.0,29.94,NW,325,1.0,2.0,94,0.16,,,1.03,21,Wunderground v.1.15,2013-04-03 21:06:00,
2013-04-03 16:10:00,52.7,51.0,29.94,NW,325,0.0,0.0,94,0.07,,,1.03,39,Wunderground v.1.15,2013-04-03 21:10:00,
2013-04-03 16:15:00,52.8,51.1,29.95,NW,326,0.0,2.0,94,0.05,,,1.03,42,Wunderground v.1.15,2013-04-03 21:15:00,
2013-04-03 16:26:00,53.0,51.6,29.95,NNW,332,0.0,0.0,95,0.00,,,1.04,105,Wunderground v.1.15,2013-04-03 21:26:00,
2013-04-03 16:30:00,53.1,51.7,29.94,NW,324,1.0,1.0,95,0.12,,,1.05,107,Wunderground v.1.15,2013-04-03 21:30:00,
2013-04-03 16:35:00,53.3,51.9,29.94,North,360,3.0,3.0,95,0.08,,,1.05,155,Wunderground v.1.15,2013-04-03 21:35:00,
2013-04-03 16:40:00,53.6,52.2,29.94,NW,326,4.0,5.0,95,0.05,,,1.05,149,Wunderground v.1.15,2013-04-03 21:40:00,
2013-04-03 16:50:00,53.8,52.4,29.94,NW,317,2.0,7.0,95,0.00,,,1.05,67,Wunderground v.1.15,2013-04-03 21:50:00,
2013-04-03 16:55:00,53.6,52.2,29.94,NNW,329,4.0,9.0,95,0.00,,,1.05,77,Wunderground v.1.15,2013-04-03 21:55:00,
2013-04-03 17:00:00,53.3,51.6,29.94,North,360,6.0,6.0,94,0.00,,,1.05,69,Wunderground v.1.15,2013-04-03 22:00:00,
2013-04-03 17:05:00,53.3,51.9,29.94,NNW,338,5.0,7.0,95,0.00,,,1.05,88,Wunderground v.1.15,2013-04-03 22:05:00,
2013-04-03 17:15:00,53.2,51.8,29.96,NNW,331,4.0,7.0,95,0.00,,,1.05,113,Wunderground v.1.15,2013-04-03 22:15:00,
2013-04-03 17:20:00,53.0,51.6,29.96,NNW,332,3.0,5.0,95,0.00,,,1.05,118,Wunderground v.1.15,2013-04-03 22:20:00,
2013-04-03 17:30:00,52.9,51.2,29.95,NNW,331,5.0,6.0,94,0.00,,,1.05,67,Wunderground v.1.15,2013-04-03 22:30:00,
2013-04-03 17:35:00,52.8,51.1,29.95,NNW,336,4.0,6.0,94,0.00,,,1.05,69,Wunderground v.1.15,2013-04-03 22:35:00,
2013-04-03 17:40:00,52.8,51.1,29.95,NNE,17,3.0,3.0,94,0.00,,,1.05,153,Wunderground v.1.15,2013-04-03 22:40:00,
2013-04-03 17:45:00,53.2,51.8,29.94,NNW,338,4.0,4.0,95,0.00,,,1.05,306,Wunderground v.1.15,2013-04-03 22:45:00,
2013-04-03 17:50:00,53.8,52.1,29.94,NNE,29,4.0,4.0,94,0.00,,,1.05,104,Wunderground v.1.15,2013-04-03 22:50:00,
2013-04-03 18:00:00,53.4,51.4,29.94,NNE,32,5.0,5.0,93,0.00,,,1.05,174,Wunderground v.1.15,2013-04-03 23:00:00,
2013-04-03 18:10:00,53.6,51.3,29.94,NNW,327,5.0,5.0,92,0.00,,,1.05,285,Wunderground v.1.15,2013-04-03 23:10:00,
2013-04-03 18:15:00,53.9,51.3,29.95,NW,323,5.0,5.0,91,0.00,,,1.05,163,Wunderground v.1.15,2013-04-03 23:15:00,
2013-04-03 18:20:00,54.0,51.4,29.95,NNW,336,6.0,6.0,91,0.00,,,1.05,148,Wunderground v.1.15,2013-04-03 23:20:00,
2013-04-03 18:30:00,54.1,51.2,29.95,North,360,6.0,6.0,90,0.00,,,1.05,93,Wunderground v.1.15,2013-04-03 23:30:00,
2013-04-03 18:35:00,54.1,50.9,29.95,NNW,338,5.0,6.0,89,0.00,,,1.05,56,Wunderground v.1.15,2013-04-03 23:35:00,
2013-04-03 18:40:00,54.0,50.8,29.95,North,5,4.0,4.0,89,0.00,,,1.05,105,Wunderground v.1.15,2013-04-03 23:40:00,
2013-04-03 18:45:00,53.9,50.7,29.96,NNE,25,3.0,4.0,89,0.00,,,1.05,107,Wunderground v.1.15,2013-04-03 23:45:00,
2013-04-03 18:50:00,53.9,50.7,29.96,NNE,17,3.0,4.0,89,0.00,,,1.05,69,Wunderground v.1.15,2013-04-03 23:50:00,
2013-04-03 19:00:00,53.6,50.1,29.97,NNE,15,5.0,6.0,88,0.00,,,1.05,72,Wunderground v.1.15,2013-04-04 00:00:00,
2013-04-03 19:10:00,53.4,49.9,29.97,North,9,5.0,6.0,88,0.00,,,1.05,53,Wunderground v.1.15,2013-04-04 00:10:00,
2013-04-03 19:15:00,53.3,49.8,29.98,North,360,4.0,6.0,88,0.00,,,1.05,39,Wunderground v.1.15,2013-04-04 00:15:00,
2013-04-03 19:20:00,53.2,49.7,29.98,NNW,327,5.0,5.0,88,0.00,,,1.05,21,Wunderground v.1.15,2013-04-04 00:20:00,
2013-04-03 19:25:00,53.2,49.7,29.98,North,360,5.0,5.0,88,0.00,,,1.05,12,Wunderground v.1.15,2013-04-04 00:25:00,
2013-04-03 19:30:00,53.0,49.5,29.99,NNE,26,4.0,5.0,88,0.00,,,1.05,11,Wunderground v.1.15,2013-04-04 00:30:00,
2013-04-03 19:35:00,52.8,49.3,29.99,NW,326,6.0,6.0,88,0.00,,,1.05,7,Wunderground v.1.15,2013-04-04 00:35:00,
2013-04-03 19:40:00,52.8,49.3,29.99,North,10,5.0,5.0,88,0.00,,,1.05,0,Wunderground v.1.15,2013-04-04 00:40:00,
2013-04-03 19:50:00,52.6,49.1,29.99,NNE,19,5.0,6.0,88,0.00,,,1.05,0,Wunderground v.1.15,2013-04-04 00:50:00,
2013-04-03 19:55:00,52.4,48.6,29.99,NNW,338,6.0,6.0,87,0.00,,,1.05,0,Wunderground v.1.15,2013-04-04 00:55:00,
2013-04-03 20:00:00,52.3,48.5,29.99,North,5,8.0,8.0,87,0.00,,,1.05,0,Wunderground v.1.15,2013-04-04 01:00:00,
2013-04-03 20:06:00,52.2,48.4,29.99,North,360,8.0,12.0,87,0.00,,,1.05,0,Wunderground v.1.15,2013-04-04 01:06:00,
2013-04-03 20:15:00,52.1,48.7,30.00,NE,34,6.0,7.0,88,0.00,,,1.05,0,Wunderground v.1.15,2013-04-04 01:15:00,
2013-04-03 20:20:00,52.0,48.3,30.00,North,9,5.0,12.0,87,0.00,,,1.05,0,Wunderground v.1.15,2013-04-04 01:20:00,
2013-04-03 20:30:00,51.8,48.1,30.01,North,360,7.0,7.0,87,0.00,,,1.05,0,Wunderground v.1.15,2013-04-04 01:30:00,
2013-04-03 20:35:00,51.8,48.4,30.01,North,11,6.0,7.0,88,0.00,,,1.05,0,Wunderground v.1.15,2013-04-04 01:35:00,
2013-04-03 20:45:00,51.7,48.3,30.01,North,5,4.0,7.0,88,0.00,,,1.05,0,Wunderground v.1.15,2013-04-04 01:45:00,
2013-04-03 20:50:00,51.6,48.2,30.01,NNE,18,6.0,6.0,88,0.00,,,1.05,0,Wunderground v.1.15,2013-04-04 01:50:00,
2013-04-03 20:55:00,51.6,48.2,30.01,North,5,5.0,6.0,88,0.00,,,1.05,0,Wunderground v.1.15,2013-04-04 01:55:00,
2013-04-03 21:10:00,51.5,48.1,30.02,North,9,5.0,5.0,88,0.00,,,1.05,0,Wunderground v.1.15,2013-04-04 02:10:00,
2013-04-03 21:15:00,51.5,48.1,30.03,NNW,334,4.0,5.0,88,0.00,,,1.05,0,Wunderground v.1.15,2013-04-04 02:15:00,
2013-04-03 21:20:00,51.4,48.0,30.03,NNW,339,4.0,4.0,88,0.00,,,1.05,0,Wunderground v.1.15,2013-04-04 02:20:00,
2013-04-03 21:25:00,51.5,48.1,30.03,NNW,338,4.0,5.0,88,0.00,,,1.05,0,Wunderground v.1.15,2013-04-04 02:25:00,
2013-04-03 21:30:00,51.4,48.0,30.04,North,360,3.0,3.0,88,0.00,,,1.05,0,Wunderground v.1.15,2013-04-04 02:30:00,
2013-04-03 21:35:00,51.4,48.0,30.04,NNW,327,4.0,4.0,88,0.00,,,1.05,0,Wunderground v.1.15,2013-04-04 02:35:00,
2013-04-03 21:40:00,51.4,48.0,30.04,NNW,333,3.0,3.0,88,0.00,,,1.05,0,Wunderground v.1.15,2013-04-04 02:40:00,
2013-04-03 21:45:00,51.4,48.0,30.05,NNE,18,3.0,5.0,88,0.00,,,1.05,0,Wunderground v.1.15,2013-04-04 02:45:00,
2013-04-03 21:50:00,51.4,48.0,30.05,NNE,26,4.0,10.0,88,0.00,,,1.05,0,Wunderground v.1.15,2013-04-04 02:50:00,
2013-04-03 22:00:00,51.4,48.0,30.05,North,360,3.0,4.0,88,0.00,,,1.05,0,Wunderground v.1.15,2013-04-04 03:00:00,
2013-04-03 22:10:00,51.3,47.9,30.05,NNW,339,5.0,6.0,88,0.00,,,1.05,0,Wunderground v.1.15,2013-04-04 03:10:00,
2013-04-03 22:15:00,51.3,47.6,30.06,NNW,332,4.0,6.0,87,0.00,,,1.05,0,Wunderground v.1.15,2013-04-04 03:15:00,
2013-04-03 22:20:00,51.3,47.6,30.06,NNW,329,5.0,11.0,87,0.00,,,1.05,0,Wunderground v.1.15,2013-04-04 03:20:00,
2013-04-03 22:25:00,51.3,47.6,30.06,North,11,5.0,11.0,87,0.00,,,1.05,0,Wunderground v.1.15,2013-04-04 03:25:00,
2013-04-03 22:30:00,51.4,47.7,30.06,NNW,333,4.0,4.0,87,0.00,,,1.05,0,Wunderground v.1.15,2013-04-04 03:30:00,
2013-04-03 22:35:00,51.4,47.7,30.06,NNW,339,3.0,4.0,87,0.00,,,1.05,0,Wunderground v.1.15,2013-04-04 03:35:00,
2013-04-03 22:40:00,51.4,47.7,30.06,NW,324,2.0,13.0,87,0.00,,,1.05,0,Wunderground v.1.15,2013-04-04 03:40:00,
2013-04-03 22:45:00,51.5,47.8,30.06,NNW,329,3.0,13.0,87,0.00,,,1.05,0,Wunderground v.1.15,2013-04-04 03:45:00,
2013-04-03 22:50:00,51.4,47.7,30.06,North,5,6.0,6.0,87,0.00,,,1.05,0,Wunderground v.1.15,2013-04-04 03:50:00,
2013-04-03 22:55:00,51.4,47.7,30.06,North,360,5.0,6.0,87,0.00,,,1.05,0,Wunderground v.1.15,2013-04-04 03:55:00,
2013-04-03 23:00:00,51.3,47.6,30.07,North,360,3.0,6.0,87,0.00,,,1.05,0,Wunderground v.1.15,2013-04-04 04:00:00,
2013-04-03 23:10:00,51.2,47.5,30.07,North,5,3.0,3.0,87,0.00,,,1.05,0,Wunderground v.1.15,2013-04-04 04:10:00,
2013-04-03 23:15:00,51.0,47.3,30.07,North,5,1.0,5.0,87,0.00,,,1.05,0,Wunderground v.1.15,2013-04-04 04:15:00,
2013-04-03 23:20:00,50.8,47.1,30.07,NNE,13,2.0,2.0,87,0.00,,,1.05,0,Wunderground v.1.15,2013-04-04 04:20:00,
2013-04-03 23:25:00,50.6,46.9,30.07,NNE,14,2.0,2.0,87,0.00,,,1.05,0,Wunderground v.1.15,2013-04-04 04:25:00,
2013-04-03 23:35:00,50.4,46.7,30.07,NNE,14,2.0,2.0,87,0.00,,,1.05,0,Wunderground v.1.15,2013-04-04 04:35:00,
2013-04-03 23:40:00,50.2,46.5,30.07,NNE,15,1.0,1.0,87,0.00,,,1.05,0,Wunderground v.1.15,2013-04-04 04:40:00,
2013-04-03 23:45:00,50.1,46.7,30.07,NNE,15,0.0,1.0,88,0.00,,,1.05,0,Wunderground v.1.15,2013-04-04 04:45:00,
2013-04-03 23:50:00,50.0,46.6,30.07,NNE,15,0.0,0.0,88,0.00,,,1.05,0,Wunderground v.1.15,2013-04-04 04:50:00,